Weather History for PANT - November, 2012

Change the Weather History Date:

Sunday, November 4, 2012

  Actual Average Record
Temperature  
Mean Temperature 48 °F 42 °F  
Max Temperature 53 °F 47 °F 58 °F (1970)
Min Temperature 43 °F 37 °F 23 °F (1971)
Degree Days  
Heating Degree Days 17 23  
Month to date heating degree days 81 91  
Since 1 July heating degree days 1509 1391  
Cooling Degree Days 0    
Month to date cooling degree days 0  
Year to date cooling degree days 7  
Moisture  
Dew Point 44 °F    
Average Humidity 0    
Maximum Humidity 0    
Minimum Humidity 0    
Precipitation  
Precipitation 0.77 in 0.46 in 2.35 in (1957)
Month to date precipitation 1.87 1.87  
Year to date precipitation 84.49 80.49  
Snow  
Snow 0.00 in 0.10 in 1.40 in (1985)
Month to date snowfall 0.0 0.3  
Since 1 July snowfall T 0.4  
Since 1 September snowfall 0.0 0.4  
Snow Depth 0.00 in    
Sea Level Pressure  
Sea Level Pressure 29.38 in    
Wind  
Wind Speed 18 mph (SE)    
Max Wind Speed 39 mph    
Max Gust Speed 64 mph    
Visibility 5 miles    
Events Rain    
T = Trace of Precipitation, MM = Missing Value Source: NWS Daily Summary

Daily Weather History Graph

Daily Weather History Graph

Search for Another Location

Airport or City:

Trip Planner

Search our weather history database for the weather conditions in past years. The results will help you decide how hot, cold, wet, or windy it might be!

Date:

Astronomy

Nov. 04, 2012 Rise Set
Actual Time 6:57 AM AKST 4:01 PM AKST
Civil Twilight 6:18 AM AKST 4:40 PM AKST
Nautical Twilight 5:35 AM AKST 5:23 PM AKST
Astronomical Twilight 4:52 AM AKST 6:05 PM AKST
Moon 8:38 PM AKST (11/4) 11:56 AM AKST (11/4)
Length of Visible Light 10h 21m
Length of Day
9h 03m
Waning Gibbous, 70% of the Moon is Illuminated
Nov 4
Waning Gibbous
Nov 6
Last Quarter
Nov 13
New
Nov 20
First Quarter
Nov 28
Full

Hourly Weather History & Observations

Time (AKST) Temp. Windchill Dew Point Humidity Pressure Visibility Wind Dir Wind Speed Gust Speed Precip Events Conditions
12:53 AM 46.0 °F 40.2 °F 41.0 °F 83% 29.80 in 10.0 mi ESE 12.7 mph 21.9 mph N/A   Overcast
1:10 AM 46.4 °F 40.4 °F 41.0 °F 81% 29.79 in 10.0 mi ESE 13.8 mph 21.9 mph N/A   Overcast
1:53 AM 46.9 °F - 39.9 °F 77% 29.78 in 10.0 mi SE 15.0 mph 25.3 mph N/A   Overcast
1:30 AM 46.4 °F 40.4 °F 39.2 °F 76% 29.75 in 10.0 mi ESE 13.8 mph 25.3 mph N/A   Mostly Cloudy
1:37 AM 46.4 °F 40.4 °F 39.2 °F 76% 29.73 in 10.0 mi ESE 13.8 mph - N/A   Mostly Cloudy
1:53 AM 46.9 °F - 39.9 °F 77% 29.72 in 10.0 mi ESE 16.1 mph 25.3 mph N/A   Mostly Cloudy
3:07 AM 46.4 °F 40.4 °F 42.8 °F 87% 29.66 in 10.0 mi ESE 13.8 mph 24.2 mph 0.01 in Rain Light Rain
3:53 AM 45.0 °F 38.9 °F 43.0 °F 93% 29.64 in 9.0 mi ESE 12.7 mph 21.9 mph 0.04 in Rain Light Rain
4:12 AM 44.6 °F 38.1 °F 42.8 °F 93% 29.61 in 6.0 mi ESE 13.8 mph 23.0 mph 0.02 in Rain Rain
4:53 AM 45.0 °F 38.5 °F 42.1 °F 90% 29.56 in 5.0 mi ESE 13.8 mph 21.9 mph 0.18 in Rain Rain
5:14 AM 44.6 °F 39.2 °F 41.0 °F 87% 29.54 in 5.0 mi East 10.4 mph 21.9 mph 0.06 in Rain Light Rain
5:30 AM 44.6 °F 39.2 °F 39.2 °F 81% 29.51 in 6.0 mi East 10.4 mph 25.3 mph 0.07 in Rain Light Rain
5:53 AM 43.0 °F 41.3 °F 39.9 °F 89% 29.47 in 8.0 mi Variable 3.5 mph - 0.09 in Rain Light Rain
6:28 AM 46.4 °F 40.4 °F 41.0 °F 81% 29.39 in 6.0 mi ESE 13.8 mph 29.9 mph 0.02 in Rain Light Rain
6:53 AM 46.9 °F - 42.1 °F 83% 29.35 in 9.0 mi ESE 16.1 mph 34.5 mph 0.02 in Rain Light Rain
7:30 AM 46.4 °F 38.5 °F 44.6 °F 93% 29.29 in 4.0 mi ESE 21.9 mph 34.5 mph 0.01 in Rain Light Rain
7:53 AM 48.0 °F - 45.0 °F 89% 29.26 in 2.5 mi ESE 21.9 mph 36.8 mph 0.03 in Rain Light Rain
8:50 AM 48.2 °F - 46.4 °F 93% 29.19 in 3.0 mi ESE 21.9 mph 42.6 mph 0.05 in Rain Light Rain
8:51 AM 48.9 °F - 46.9 °F 93% 29.19 in 3.0 mi ESE 25.3 mph 36.8 mph 0.06 in Rain Light Rain
9:06 AM 48.2 °F - 46.4 °F 93% 29.17 in 2.5 mi ESE 21.9 mph 39.1 mph 0.00 in Rain Light Rain
9:15 AM 48.2 °F - 46.4 °F 93% 29.17 in 2.0 mi ESE 25.3 mph 34.5 mph 0.01 in Rain Light Rain
9:39 AM 50.0 °F - 48.2 °F 94% 29.14 in 8.0 mi ESE 28.8 mph 39.1 mph 0.04 in Rain Light Rain
9:53 AM 50.0 °F - 48.0 °F 93% 29.13 in 3.0 mi SE 29.9 mph 42.6 mph 0.04 in Rain Light Rain
10:00 AM 50.0 °F - 48.2 °F 94% 29.12 in 2.0 mi SE 29.9 mph 42.6 mph 0.00 in Rain Light Rain
10:17 AM 50.0 °F - 48.2 °F 94% 29.11 in 7.0 mi SE 29.9 mph 46.0 mph 0.05 in Rain Light Rain
10:29 AM 51.8 °F - 50.0 °F 94% 29.11 in 6.0 mi SE 34.5 mph 64.4 mph 0.05 in Rain Light Rain
10:53 AM 53.1 °F - 50.0 °F 89% 29.13 in 7.0 mi SSE 27.6 mph 52.9 mph 0.07 in   Overcast
11:03 AM 53.6 °F - 48.2 °F 82% 29.13 in 6.0 mi SSE 28.8 mph 44.9 mph N/A   Overcast
11:37 AM 51.8 °F - 46.4 °F 82% 29.13 in 6.0 mi SSE 31.1 mph 51.8 mph N/A   Overcast
11:53 AM 52.0 °F - 45.0 °F 77% 29.14 in 7.0 mi SSE 26.5 mph 50.6 mph 0.00 in Rain Light Rain
12:53 PM 50.0 °F - 45.0 °F 83% 29.14 in 4.0 mi SE 31.1 mph 48.3 mph 0.00 in Rain Light Rain
1:11 PM 48.2 °F - 44.6 °F 87% 29.13 in 3.0 mi SSE 28.8 mph 50.6 mph 0.00 in Rain Light Rain
1:42 PM 48.2 °F - 44.6 °F 87% 29.15 in 2.5 mi SSE 24.2 mph 51.8 mph 0.06 in Rain Rain
1:53 PM 48.0 °F - 45.0 °F 89% 29.16 in 2.0 mi SSE 33.4 mph 52.9 mph 0.06 in Rain Rain
2:53 PM 48.0 °F - 45.0 °F 89% 29.20 in 3.0 mi SSE 26.5 mph 49.5 mph 0.15 in Rain Light Rain
3:01 PM 48.2 °F - 44.6 °F 87% 29.19 in 3.0 mi SSE 23.0 mph 49.5 mph 0.01 in Rain Light Rain
3:53 PM 48.0 °F - 45.0 °F 89% 29.24 in 4.0 mi SSE 25.3 mph 47.2 mph 0.06 in Rain Rain
4:18 PM 46.4 °F 38.7 °F 44.6 °F 93% 29.27 in 3.0 mi South 20.7 mph 40.3 mph 0.09 in Rain Rain
4:53 PM 46.9 °F - 45.0 °F 93% 29.32 in 3.0 mi SSE 17.3 mph 39.1 mph 0.24 in Rain Rain
5:04 PM 46.4 °F 38.3 °F 44.6 °F 93% 29.32 in 3.0 mi South 23.0 mph 43.7 mph 0.04 in Rain Rain
5:15 PM 46.4 °F 39.2 °F 44.6 °F 93% 29.34 in 4.0 mi South 18.4 mph 33.4 mph 0.08 in Rain Rain
5:51 PM 46.4 °F 39.5 °F 44.6 °F 93% 29.39 in 4.0 mi SSE 17.3 mph 29.9 mph 0.20 in Rain Rain
5:53 PM 46.9 °F - 45.0 °F 93% 29.39 in 4.0 mi South 15.0 mph 29.9 mph 0.21 in Rain Rain
6:13 PM 46.4 °F 38.7 °F 44.6 °F 93% 29.41 in 5.0 mi South 20.7 mph 36.8 mph 0.06 in Rain Rain
6:38 PM 46.4 °F 39.5 °F 44.6 °F 93% 29.44 in 5.0 mi South 17.3 mph 38.0 mph 0.12 in Rain Rain
6:53 PM 46.9 °F - 44.1 °F 90% 29.46 in 5.0 mi South 19.6 mph 35.7 mph 0.16 in Rain Rain
7:53 PM 46.9 °F - 44.1 °F 90% 29.53 in 4.0 mi South 17.3 mph 40.3 mph 0.14 in Rain Rain
8:53 PM 46.9 °F - 44.1 °F 90% 29.62 in 5.0 mi South 17.3 mph 36.8 mph 0.18 in Rain Rain
9:53 PM 46.9 °F - 43.0 °F 86% 29.69 in 8.0 mi South 15.0 mph 38.0 mph 0.13 in Rain Light Rain
10:31 PM 46.4 °F 39.5 °F 44.6 °F 93% 29.73 in 5.0 mi South 17.3 mph 26.5 mph 0.07 in Rain Rain
10:53 PM 46.0 °F 39.3 °F 44.1 °F 93% 29.76 in 4.0 mi South 16.1 mph 26.5 mph 0.16 in Rain Rain